Dades meteomassalio
Diari Summary for Maig 8, 2017 Units:  English    Metric   Both
« Previous Day
Next Day »
Diari Semanal Mensual Anual Personalitzat
  Maxima: Minima: Mijana:
Temperatura: TemperatureC °F 15.4 °F 21.8 °F
Rosada: DewpointC °F -2.9 °F -0.8 °F
Humitat: Humidity % 14 % 23 %
Velocitat del vent: WindSpeedKMH mph 0.0 mph 6.3 mph
Racha vent: WindSpeedGustKMH mph - -
Vent:- - WNW
Pressio: PressurehPa in 1012.8 in -
Pluja: 0.0 in    
Historical Graphs
 
 
Tabular Data for Maig 8, 2017
Time Temperature Dew Point Pressure Wind Wind Speed Wind Gust Humidity Rainfall Rate (Hourly) solar Conditions
TemperatureC °F DewpointC °F PressurehPa in Calm     Humidity % HourlyPrecipMM in SolarRadiationWatts/m^2 W/m2 Conditions
18:16 26.7 °F -1.2 °F 1013.1 in NNW 35.4 mph 35.4 mph 16 % 0.0 in 397.0 W/m2 OVC
18:21 26.7 °F -1.2 °F 1013.1 in NW 18.5 mph 18.5 mph 16 % 0.0 in 497.0 W/m2 CLR
18:26 26.8 °F -1.1 °F 1013.1 in North 18.5 mph 18.5 mph 16 % 0.0 in 496.0 W/m2 CLR
18:31 27.1 °F -0.9 °F 1013.1 in NNE 18.5 mph 18.5 mph 16 % 0.0 in 480.0 W/m2 CLR
18:36 27.1 °F -0.9 °F 1013.1 in NW 27.8 mph 27.8 mph 16 % 0.0 in 429.0 W/m2 CLR
18:41 27.2 °F 0.1 °F 1012.8 in WNW 1.6 mph 1.6 mph 17 % 0.0 in 353.0 W/m2 CLR
18:46 27.3 °F -1.6 °F 1012.8 in NNW 18.5 mph 18.5 mph 15 % 0.0 in 341.0 W/m2 CLR
18:51 27.2 °F -1.7 °F 1012.8 in WNW 16.7 mph 16.7 mph 15 % 0.0 in 406.0 W/m2 CLR
18:56 27.2 °F -1.7 °F 1012.8 in NW 14.5 mph 14.5 mph 15 % 0.0 in 320.0 W/m2 CLR
19:01 26.9 °F -1.9 °F 1012.8 in NNW 22.2 mph 22.2 mph 15 % 0.0 in 294.0 W/m2 CLR
19:06 26.8 °F -2.0 °F 1012.8 in NW 22.2 mph 22.2 mph 15 % 0.0 in 332.0 W/m2 CLR
19:11 26.8 °F -2.0 °F 1012.8 in NNW 4.8 mph 4.8 mph 15 % 0.0 in 306.0 W/m2 CLR
19:16 27.1 °F -1.8 °F 1012.8 in NNE 4.8 mph 4.8 mph 15 % 0.0 in 287.0 W/m2 CLR
19:21 27.1 °F -2.8 °F 1012.8 in NW 9.3 mph 9.3 mph 14 % 0.0 in 274.0 W/m2 CLR
19:26 26.9 °F -2.9 °F 1012.8 in NW 18.5 mph 18.5 mph 14 % 0.0 in 237.0 W/m2 CLR
19:31 26.7 °F -2.1 °F 1013.1 in NNW 19.3 mph 19.3 mph 15 % 0.0 in 169.0 W/m2 CLR
19:37 26.3 °F -2.4 °F 1012.8 in NNW 13.0 mph 13.0 mph 15 % 0.0 in 121.0 W/m2 CLR
19:42 26.3 °F -1.6 °F 1012.8 in NNW 5.6 mph 5.6 mph 16 % 0.0 in 176.0 W/m2 CLR
19:47 26.3 °F -1.6 °F 1013.1 in NW 14.8 mph 14.8 mph 16 % 0.0 in 142.0 W/m2 CLR
19:52 26.0 °F -1.8 °F 1013.1 in NW 14.8 mph 14.8 mph 16 % 0.0 in 98.0 W/m2 CLR
19:57 25.8 °F -1.9 °F 1013.1 in NW 18.5 mph 18.5 mph 16 % 0.0 in 90.0 W/m2 CLR
20:02 25.7 °F -2.1 °F 1013.1 in NW 22.2 mph 22.2 mph 16 % 0.0 in 72.0 W/m2 FEW
20:07 25.5 °F -2.2 °F 1013.1 in NW 18.5 mph 18.5 mph 16 % 0.0 in 67.0 W/m2 FEW
20:12 25.3 °F -2.3 °F 1013.1 in NW 18.5 mph 18.5 mph 16 % 0.0 in 62.0 W/m2 SCT
20:17 25.2 °F -1.6 °F 1013.1 in NNW 16.7 mph 16.7 mph 17 % 0.0 in 62.0 W/m2 SCT
20:22 25.1 °F -1.7 °F 1013.1 in NW 14.8 mph 14.8 mph 17 % 0.0 in 54.0 W/m2 SCT
20:27 24.9 °F -1.1 °F 1013.1 in NW 7.4 mph 7.4 mph 18 % 0.0 in 46.0 W/m2 SCT
20:32 24.8 °F -1.1 °F 1013.1 in NW 5.6 mph 5.6 mph 18 % 0.0 in 39.0 W/m2 BKN
20:37 24.6 °F -1.3 °F 1013.1 in Calm     18 % 0.0 in 33.0 W/m2 BKN
20:42 24.4 °F -1.5 °F 1013.1 in Calm     18 % 0.0 in 25.0 W/m2 BKN
20:47 24.1 °F -1.8 °F 1013.1 in Calm     18 % 0.0 in 18.0 W/m2 BKN
20:52 23.8 °F -1.2 °F 1013.1 in NW 5.6 mph 5.6 mph 19 % 0.0 in 11.0 W/m2 BKN
20:57 23.7 °F -1.3 °F 1013.1 in Calm     19 % 0.0 in 7.0 W/m2 BKN
21:02 23.5 °F -1.5 °F 1013.1 in Calm     19 % 0.0 in 0.0 W/m2 OVC
21:07 23.2 °F -1.1 °F 1013.1 in Calm     20 % 0.0 in 0.0 W/m2 OVC
21:12 22.9 °F -1.2 °F 1013.1 in Calm     20 % 0.0 in 0.0 W/m2 OVC
21:17 22.7 °F -1.4 °F 1013.1 in Calm     20 % 0.0 in 0.0 W/m2 CLR
21:22 22.1 °F -1.3 °F 1013.4 in Calm     21 % 0.0 in 0.0 W/m2 CLR
21:27 21.8 °F -1.5 °F 1013.4 in Calm     21 % 0.0 in 0.0 W/m2 CLR
21:32 21.6 °F -1.1 °F 1013.4 in Calm     22 % 0.0 in 0.0 W/m2 CLR
21:37 21.2 °F -0.8 °F 1013.4 in Calm     23 % 0.0 in 0.0 W/m2 CLR
21:42 20.8 °F 0.0 °F 1013.4 in Calm     25 % 0.0 in 0.0 W/m2 CLR
21:47 20.4 °F -0.8 °F 1013.4 in Calm     24 % 0.0 in 0.0 W/m2 CLR
21:52 20.1 °F -1.2 °F 1013.4 in Calm     24 % 0.0 in 0.0 W/m2 CLR
21:57 19.9 °F -0.2 °F 1013.4 in Calm     26 % 0.0 in 0.0 W/m2 CLR
22:02 19.6 °F 0.1 °F 1013.4 in Calm     27 % 0.0 in 0.0 W/m2 CLR
22:07 19.3 °F -0.2 °F 1013.8 in Calm     27 % 0.0 in 0.0 W/m2 CLR
22:12 19.0 °F 0.1 °F 1013.8 in Calm     28 % 0.0 in 0.0 W/m2 CLR
22:17 18.7 °F -0.2 °F 1013.8 in Calm     28 % 0.0 in 0.0 W/m2 CLR
22:22 18.6 °F -0.8 °F 1013.8 in Calm     27 % 0.0 in 0.0 W/m2 CLR
22:27 18.6 °F -0.8 °F 1013.8 in Calm     27 % 0.0 in 0.0 W/m2 CLR
22:32 18.6 °F 0.6 °F 1013.8 in Calm     30 % 0.0 in 0.0 W/m2 CLR
22:37 18.2 °F 0.3 °F 1013.8 in Calm     30 % 0.0 in 0.0 W/m2 CLR
22:42 17.8 °F 0.9 °F 1013.8 in Calm     32 % 0.0 in 0.0 W/m2 CLR
22:43 17.8 °F 0.8 °F 1014.1 in Calm     32 % 0.0 in 0.0 W/m2 CLR
22:48 17.3 °F 0.4 °F 1013.8 in Calm     32 % 0.0 in 0.0 W/m2 CLR
22:53 17.0 °F 0.6 °F 1014.1 in Calm     33 % 0.0 in 0.0 W/m2 CLR
22:58 16.7 °F 0.7 °F 1014.1 in Calm     34 % 0.0 in 0.0 W/m2 CLR
23:03 16.4 °F 0.5 °F 1014.1 in Calm     34 % 0.0 in 0.0 W/m2 CLR
23:08 16.3 °F 0.4 °F 1014.1 in Calm     34 % 0.0 in 0.0 W/m2 CLR
23:13 16.2 °F 0.3 °F 1014.1 in Calm     34 % 0.0 in 0.0 W/m2 CLR
23:18 15.9 °F 0.5 °F 1014.1 in Calm     35 % 0.0 in 0.0 W/m2 CLR
23:23 15.8 °F 0.8 °F 1014.1 in Calm     36 % 0.0 in 0.0 W/m2 CLR
23:28 15.7 °F 0.6 °F 1014.1 in Calm     36 % 0.0 in 0.0 W/m2 CLR
23:33 15.6 °F 0.5 °F 1014.1 in Calm     36 % 0.0 in 0.0 W/m2 CLR
23:38 15.5 °F 0.5 °F 1014.1 in Calm     36 % 0.0 in 0.0 W/m2 CLR
23:43 15.4 °F 0.4 °F 1014.1 in Calm     36 % 0.0 in 0.0 W/m2 CLR
23:48 15.4 °F 0.0 °F 1014.1 in Calm     35 % 0.0 in 0.0 W/m2 CLR
23:53 15.4 °F 0.1 °F 1014.1 in Calm     35 % 0.0 in 0.0 W/m2 CLR
23:58 15.6 °F 0.1 °F 1014.1 in Calm     35 % 0.0 in 0.0 W/m2 CLR
Lo Temps de Massalio
Compliments of Weather Underground - 512 kb